Вернуться в каталог

COSMOS 2251 DEB

АктивенVLEO
NORAD 38487·DEBRIS·🇷🇺 Russia

Запущен Jun 16, 1993 с Plesetsk Cosmodrome

Loading…

Ближайшие Пролёты (ближайшие 24 часа)

TLE

СвежийSource: Space-Track

Эпоха: Sep 14, 2026, 02:17 UTC

1 38487U 93036BTX 26257.09547558  .00205184  00000-0  23275-2 0  9997
2 38487  73.9551 160.6172 0018825 206.1280 153.8991 15.61400428710250

Отслеживайте COSMOS 2251 DEB в реальном времени с AllMySat

Download on the App Store